Regional Weather Roundup
Issued by NWS

Home | Current Version | Previous Version | Text Only | Print | Product List | Glossary Off
Versions: 1 2 3 4 5 6 7 8 9 10 11 12 13 14 15 16 17 18 19 20 21 22 23 24 25 26 27 28 29 30 31 32 33 34 35 36 37 38 39 40 41 42 43 44 45 46 47 48 49 50

000
ASUS43 KLOT 051008
RWRIL

ILLINOIS REGIONAL WEATHER ROUNDUP
NATIONAL WEATHER SERVICE CHICAGO/ROMEOVILLE IL
400 AM CST MON DEC 05 2016

NOTE: "FAIR" INDICATES FEW OR NO CLOUDS BELOW 12,000 FEET WITH NO
SIGNIFICANT WEATHER AND/OR OBSTRUCTIONS TO VISIBILITY.

* THESE STATIONS ARE NOT UNDER NWS QUALITY CONTROL. THEY ALSO MAY NOT
  REPORT WEATHER SUCH AS PRECIPITATION OR FOG.

ILZ001-002-007-009-015-016-024-051100-
NORTHWEST ILLINOIS

CITY           SKY/WX    TMP DP  RH WIND       PRES   REMARKS
MOLINE         CLOUDY    34  31  88 S6        29.99S WCI  29
STERLING*      CLOUDY    33  31  92 SW6       30.00S FOG     WCI  28
SAVANNA*       CLOUDY    34  32  92 SW8       29.98R WCI  27
$$

ILZ003-004-008-010-011-017-018-051100-
NORTH CENTRAL ILLINOIS

CITY           SKY/WX    TMP DP  RH WIND       PRES   REMARKS
ROCKFORD       CLOUDY    32  30  92 W9        30.00R FOG     WCI  24
FREEPORT*      CLOUDY    32  32  99 SW7       29.99R FOG     WCI  26
ROCHELLE*      CLOUDY    32  32  97 W10       29.99F WCI  24
DE KALB*       CLOUDY    32  31  96 W9        29.99S FOG     WCI  24
$$

ILZ005-006-012>014-019>023-051100-
NORTHEAST ILLINOIS

CITY           SKY/WX    TMP DP  RH WIND       PRES   REMARKS
CHICAGO-OHARE  CLOUDY    33  30  88 W9        29.98S WCI  25
CHICAGO-MIDWAY CLOUDY    34  30  85 W12       30.00S WCI  25
AURORA         CLOUDY    34  31  88 W12       30.00R WCI  25
LANSING*       CLOUDY    33  32  96 W7        30.02R WCI  27
JOLIET*        CLOUDY    34  33  94 SW5       30.02S WCI  30
WAUKEGAN       CLOUDY    33  31  92 SW8       29.96R WCI  26
DUPAGE AIRPORT CLOUDY    33  29  85 W13       29.98S WCI  24
KANKAKEE*      CLOUDY    32  32  99 CALM      30.04S
WHEELING       CLOUDY    33  30  88 W8        29.99R WCI  26
MORRIS*        CLOUDY    33  31  92 W8        30.00F WCI  26
ROMEOVILLE*    CLOUDY    33  33 100 W5        30.01S WCI  28
NORTHERLY ISL    N/A     34  30  86 W9          N/A  WCI  27
$$

LMZ740>746-051100-
SOUTHERN LAKE MICHIGAN

STATION/POSITION SKY/WX   TEMP    WIND        PRES    VSBY  WAVE
                          AIR SEA DIR/SP/G                  HT/PER
                          (F)     (DEG/KT/KT) (MB)    (MI)  (FT/S)
HARRISON CRIB              35     260/ 18/ 20   N/A
BURNHAM HARBOR             34     240/  8/ 15   N/A
CALUMET HARBOR             33     240/  7/ 16 1015.6R
BURNS HARBOR               36     240/ 12/ 18 1016.9R
$$

ILZ025>027-034>036-040-047-049-050-058-095>099-051100-
WEST-CENTRAL ILLINOIS

CITY           SKY/WX    TMP DP  RH WIND       PRES   REMARKS
QUINCY         FOG       32  32 100 CALM      30.00F VSB<1/4
GALESBURG*     CLOUDY    32  32 100 SW6       30.00S FOG     WCI  26
MACOMB*        CLOUDY    32  32 100 W3        30.03F FOG
JACKSONVILLE*  FOG       33  33  99 S6        30.04R VSB 1/2 WCI  28
PITTSFIELD*    FOG       30  30 100 SE3       30.03S VSB 1/4
$$

ILZ028>032-037-038-041>044-048-051>054-059>061-051100-
CENTRAL ILLINOIS

CITY           SKY/WX    TMP DP  RH WIND       PRES   REMARKS
PONTIAC        CLOUDY    33  33 100 W7        30.02F WCI  27
BLOOMINGTON    CLOUDY    31  30  96 SW7       30.02F WCI  24
DECATUR        CLOUDY    33  31  92 SW5       30.04S WCI  29
PEORIA         CLOUDY    32  32 100 W5        30.03S WCI  27
LACON*         CLOUDY    32  31  98 CALM      30.02S
LINCOLN*       CLOUDY    35  34  96 CALM      30.03F
SPRINGFIELD    CLOUDY    35  33  92 S3        30.04S
TAYLORVILLE    CLOUDY    34  33  97 S3        30.05S FOG
$$

ILZ033-039-045-046-055>057-062-063-051100-
EAST-CENTRAL ILLINOIS

CITY           SKY/WX    TMP DP  RH WIND       PRES   REMARKS
CHAMPAIGN      CLOUDY    33  30  88 W7        30.05R WCI  27
RANTOUL*       CLOUDY    34  32  94 W6        30.03F WCI  29
MATTOON        CLOUDY    34  31  88 W3        30.05S
PARIS*         CLOUDY    34  32  94 W5        30.06F WCI  30
$$

ILZ079-100>102-051100-
SOUTHWEST ILLINOIS

CITY           SKY/WX    TMP DP  RH WIND       PRES   REMARKS
ALTON          CLOUDY    33  33  98 SE5       30.06F WCI  29
BELLEVILLE     CLOUDY    37  37  99 SE2       30.06S
CAHOKIA*       CLOUDY    36  32  85 CALM      30.06S
SPARTA*        CLOUDY    37  33  87 SE3       30.08S
$$

ILZ064>066-069>071-074>076-080>082-084>086-088>090-092>094-051100-
SOUTH-CENTRAL ILLINOIS

CITY           SKY/WX    TMP DP  RH WIND       PRES   REMARKS
CARBONDALE     MOCLDY    39  33  79 SE3       30.08F
CAIRO*         MOCLDY    39  34  83 CALM      30.07F
EFFINGHAM*     CLOUDY    35  34  96 CALM      30.08S
MARION         CLOUDY    41  36  81 CALM      30.09S
CENTRALIA*     CLOUDY    37  35  93 CALM      30.06F
SALEM*         CLOUDY    37  33  85 S3        30.08S
METROPOLIS*    CLOUDY    40  35  81 CALM      30.08F
$$

ILZ067-068-072-073-078-083-087-091-051100-
SOUTHEAST ILLINOIS

CITY           SKY/WX    TMP DP  RH WIND       PRES   REMARKS
LAWRENCEVILLE  CLOUDY    37  32  82 CALM      30.09S
FLORA*         CLOUDY    37  33  84 CALM      30.09R
FAIRFIELD*     CLOUDY    37  33  87 CALM      30.09R
HARRISBURG*    CLOUDY    37  34  86 CALM      30.09S
ROBINSON*      CLOUDY    34  32  92 W5        30.09F WCI  30
CARMI*         CLOUDY    37  35  89 N3        30.09S
$$

ABBREVIATIONS USED IN REMARKS
   TC - TEMPERATURE IN CELSIUS
  WCI - WIND CHILL INDEX
   HX - HEAT INDEX
  VSB - VISIBILITY
$$




USA.gov is the U.S. government's official web portal to all federal, state and local government web resources and services.